Location: Franzen
(48.6167°N, 15.3833°E)
Time: 09:42:47
(UTC+00:00)

A-11 Canister half - Pass Details

Date: 02 August 2021
Orbit: 1515 x 1685 km, 47.2° (Epoch: 21 September)

Event Time Altitude Azimuth Distance (km) Brightness Sun altitude
Rises 20:36:46 0° 286° (WNW) 4,886 12.5 -16.1°
Reaches altitude 10° 20:39:55 10° 283° (WNW) 3,914 11.8 -16.4°
Maximum altitude 20:49:47 62° 206° (SSW) 1,860 9.2 -17.4°
Enters shadow 20:56:33 23° 135° (SE) 3,024 9.9 -18.0°
Drops below altitude 10° 20:59:42 10° 130° (SE) 3,940 - -18.2°
Sets 21:02:54 0° 127° (SE) 4,919 - -18.5°
